User: anonymous   Login
Location: Seattle
(47.6064°N, 122.3308°W)
Time: 01:31:12
(UTC-08:00)
Language:

STARS - Orbit

View from above orbital plane
View from above orbital plane
View from above satellite
View from above satellite

Ground track
Ground track

The orbit data is extracted from the following two-line orbital elements,

1 33498U 09002G   24063.71146777  .00004257  00000-0  51421-3 0  9997
2 33498  98.1233 335.9425 0011138  37.1038 323.0944 14.84258046814024
Epoch (UTC): 03 March 2024 17:04:30
Eccentricity: 0.0011138
inclination: 98.1233°
perigee height: 608 km
apogee height: 624 km
right ascension of ascending node: 335.9425°
argument of perigee: 37.1038°
revolutions per day: 14.84258046
mean anomaly at epoch: 323.0944°
orbit number at epoch: 81402

The dashed part of the orbit path shows where the satellite is in the earth's shadow,  

DLR